Regional Weather Roundup
Issued by NWS

Home | Current Version | Previous Version | Graphics & Text | Print | Product List | Glossary Off
Versions: 1 2 3 4 5 6 7 8 9 10 11 12 13 14 15 16 17 18 19 20 21 22 23 24 25 26 27 28 29 30 31 32 33 34 35 36 37 38 39 40 41 42 43 44 45 46 47 48 49 50

000
ASUS43 KMKX 011621
RWRWI

WISCONSIN REGIONAL WEATHER ROUNDUP
NATIONAL WEATHER SERVICE MILWAUKEE/SULLIVAN WI
1100 AM CDT SUN MAY 01 2016

NOTE: "FAIR" INDICATES FEW OR NO CLOUDS BELOW 12,000 FEET WITH NO
SIGNIFICANT WEATHER AND/OR OBSTRUCTIONS TO VISIBILITY.

WIZ001-002-006>008-014>016-023>028-011700-
NORTHWEST WISCONSIN

CITY           SKY/WX    TMP DP  RH WIND       PRES   REMARKS
SUPERIOR ARPT  CLOUDY    46  35  65 NE13G20   30.27S
ASHLAND        CLOUDY    42  38  85 N13       30.26S
HAYWARD        MOSUNNY   48  36  63 NE14G22   30.20F
SIREN          MOSUNNY   51  35  55 NE8       30.20S
CUMBERLAND     SUNNY     50  36  57 NE12      30.16S
RICE LAKE      SUNNY     52  36  55 N10       30.17S
CHETEK         SUNNY     55  36  49 NE6       30.15S
LADYSMITH      SUNNY     52  36  55 N13       30.16F
EAU CLAIRE     SUNNY     55  35  47 NE13      30.12F
MENOMONIE      SUNNY     55  35  46 NE8       30.13F
NEW RICHMOND   SUNNY     53  36  52 N10       30.16S
OSCEOLA        SUNNY     52  38  57 N13       30.19F
$$

WIZ003>005-009-010-017-018-011700-
NORTH CENTRAL WISCONSIN

CITY           SKY/WX    TMP DP  RH WIND       PRES   REMARKS
MANITOWISH WTR MOSUNNY   50  33  52 N7        30.16S
ARBOR VITAE    SUNNY     53  34  48 NE8       30.14F
WOODRUFF       SUNNY     53  34  48 NE8       30.14F
RHINELANDER    SUNNY     54  30  40 NE10      30.13F
EAGLE RIVER    SUNNY     53  31  42 NE12      30.14S
LAND O LAKES   SUNNY     53  32  45 NE10      30.16S
PHILLIPS       SUNNY     51  37  57 N8        30.14S
TOMAHAWK       SUNNY     54  31  42 NE5       30.13F
MEDFORD        SUNNY     53  32  44 NE12      30.11F
MERRILL        SUNNY    N/A N/A N/A E10       30.12F
$$

WIZ029-030-035-036-043>047-011700-
CENTRAL WISCONSIN

CITY           SKY/WX    TMP DP  RH WIND       PRES   REMARKS
WAUSAU         CLOUDY    53  29  39 E8        30.10F
MOSINEE        PTSUNNY   52  30  43 NE7       30.12F
MARSHFIELD     CLOUDY    54  33  45 NE8       30.10F
STEVENS POINT  CLOUDY    48  33  56 NE8       30.12S
WAUPACA        CLOUDY    51  38  61 N6        30.10F
WAUTOMA        CLOUDY    49  39  68 NE14      30.09F
WISC RAPIDS    CLOUDY    50  33  52 NE8       30.12S
CAMP DOUGLAS   CLOUDY    50  43  76 NE13G20   30.09S
$$

WIZ011>013-019>022-031-037>040-048>050-011700-
NORTHEAST WISCONSIN

CITY           SKY/WX    TMP DP  RH WIND       PRES   REMARKS
ANTIGO         CLOUDY    53  31  44 E3        30.11F
SHAWANO        CLOUDY    53  36  52 NE5       30.12S
OCONTO         CLOUDY    51  36  55 NE13      30.12R
STURGEON BAY   CLOUDY    48  36  61 NE6       30.15R
GREEN BAY      CLOUDY    48  37  65 NE18      30.11S
MANITOWOC      CLOUDY    48  37  65 NE14      30.10S
APPLETON       CLOUDY    46  36  66 NE12      30.08F
CLINTONVILLE   CLOUDY    50  34  53 N9        30.11S
OSHKOSH        CLOUDY    49  41  74 NE15      30.08F
$$

WIZ032>034-041-042-053>061-011700-
SOUTHWEST WISCONSIN

CITY           SKY/WX    TMP DP  RH WIND       PRES   REMARKS
LA CROSSE      CLOUDY    53  37  54 E8        30.09S
SPARTA         CLOUDY    50  37  61 NE13      30.10S
VIROQUA        PTSUNNY   49  38  66 NE15      30.07S
BOSCOBEL       CLOUDY    52  39  61 NE6       30.06S
PRAIRIE DU CHI CLOUDY    50  37  61 E13G20    30.05S
PLATTEVILLE    CLOUDY    49  43  78 NE18G25   30.02F
$$

WIZ056-057-062-063-064-067-068-011700-
SOUTH CENTRAL WISCONSIN

CITY           SKY/WX    TMP DP  RH WIND       PRES   REMARKS
REEDSBURG      CLOUDY    47  40  76 NE8       30.07R
BARABOO/DELLS  CLOUDY    46  40  80 NE12      30.07S
LONE ROCK      CLOUDY    49  39  68 NE10      30.07R
MINERAL POINT  CLOUDY    50  41  71 NE17      30.03S
MADISON        CLOUDY    46  40  79 NE15      30.06R
MIDDLETON        N/A     47  42  80 NE13      30.06R
WATERTOWN      CLOUDY    48  45  89 NE13      30.04S
MONROE         CLOUDY    45  43  93 NE15      30.02S
JANESVILLE     CLOUDY    48  46  93 NE12G17   30.02S
$$

WIZ051-052-058>065-066-070>072-011700-
SOUTHEAST WISCONSIN

CITY           SKY/WX    TMP DP  RH WIND       PRES   REMARKS
MILWAUKEE      CLOUDY    46  40  79 N15G28    30.04R
WAUKESHA       CLOUDY    46  41  81 NE13G21   30.05S
MILWAUKEE/TIMM CLOUDY    48  37  66 NE15G23   30.05F
RACINE         CLOUDY    44  39  82 N15G21    30.05R
BURLINGTON     CLOUDY    46  43  88 NE12G20   30.03R
KENOSHA        CLOUDY    46  42  86 NE14      30.03S
FOND DU LAC    PTSUNNY   51  43  74 NE14      30.07F
SHEBOYGAN      CLOUDY    52  38  58 NE15      30.06F
WEST BEND      CLOUDY    50  41  71 NE14G22   30.05S
JUNEAU         CLOUDY    49  43  79 NE12G17   30.07S
$$

LSZ147-162-011700-
LAKE SUPERIOR

STATION/POSITION TIME  TEMP    WIND        PRES    WAVE
                       AIR SEA DIR/SP/G            HT/PER
                 (UTC) (F)     (DEG/KT/KT) (MB)    (FT/S)
W MID LAKE BUOY  1550   38 37   40/ 12/ 14 1025.2S   3/ 5
DEVILS ISLAND    1600   39      60/  9/ 10 1025.7F
SAXON HARBOR     1500   39      10/  8/ 11 1023.7
$$

LMZ867-665-643>646-011700-
LAKE MICHIGAN

STATION/POSITION TIME  TEMP    WIND        PRES    WAVE
                       AIR SEA DIR/SP/G            HT/PER
                 (UTC) (F)     (DEG/KT/KT) (MB)    (FT/S)
CHAMBERS ISLAND  1500   44      10/ 10/ 12 1020.3S
N MID LAKE BUOY  1550   40 39   40/  8/ 10 1020.6R
NORTHPORT PIER   1500   44      70/ 13/ 17 1020.3R
ALGOMA LAKESHORE 1500           60/ 11/ 14   N/A
KEWAUNEE LAKESHO 1500   45      20/ 11/ 14 1018.6R
SHEBOYGAN LAKESH 1600   42      10/ 17/ 19 1019.1F
PORT WASHINGTON  1540   49      30/ 14/ 21 1018.6F
S MID LAKE BUOY  1550   42 40   40/ 14/ 16 1016.0F   3/ 5
KENOSHA   LAKESH 1600   43      20/ 20/ 22 1016.6S
$$

TC  - TEMPERATURE IN CELSIUS
VSB - VISIBILITY IN STATUTE MILES
WCI - WIND CHILL INDEX
HX  - HEAT INDEX





USA.gov is the U.S. government's official web portal to all federal, state and local government web resources and services.